KE9LZ-9 Weather Reports


Display with metric or nautical units.
time (UTC)temp
F
wind
direction
speed
MPH
gust
MPH
rain 1hr
in
rain 24hr
in
rain mn
in
humidity
%
barometer
mb
20171123112005 28 253 0.0 2.0 0.00 0.00 0.00 79 1013.4
20171123111505 28 250 0.0 1.0 0.00 0.00 0.00 79 1013.4
20171123110004 28 299 1.0 3.0 0.00 0.00 0.00 79 1013.4
20171123105504 28 254 1.0 3.0 0.00 0.00 0.00 79 1013.7
20171123105006 28 323 1.0 3.0 0.00 0.00 0.00 79 1013.4
20171123104505 28 251 2.0 3.0 0.00 0.00 0.00 79 1013.6
20171123104004 28 300 1.0 3.0 0.00 0.00 0.00 79 1013.7
20171123103505 28 272 1.0 2.0 0.00 0.00 0.00 79 1013.4
20171123103006 28 257 2.0 6.0 0.00 0.00 0.00 79 1013.7
20171123102505 28 284 1.0 6.0 0.00 0.00 0.00 79 1013.7
20171123102005 28 327 1.0 2.0 0.00 0.00 0.00 79 1013.7
20171123101507 28 351 2.0 3.0 0.00 0.00 0.00 79 1013.7
20171123101004 28 301 1.0 2.0 0.00 0.00 0.00 79 1013.7
20171123100005 28 345 1.0 2.0 0.00 0.00 0.00 79 1014.1
20171123095505 28 288 2.0 3.0 0.00 0.00 0.00 79 1013.7
20171123095006 28 322 1.0 2.0 0.00 0.00 0.00 79 1013.7
20171123094504 27 320 1.0 2.0 0.00 0.00 0.00 79 1014.1
20171123094005 27 314 1.0 2.0 0.00 0.00 0.00 79 1014.1
20171123093507 27 230 1.0 2.0 0.00 0.00 0.00 79 1014.1
20171123093006 27 240 1.0 3.0 0.00 0.00 0.00 79 1014.1
20171123092504 27 309 2.0 3.0 0.00 0.00 0.00 79 1014.1
20171123092004 27 319 1.0 3.0 0.00 0.00 0.00 78 1014.1
20171123091505 27 318 2.0 5.0 0.00 0.00 0.00 78 1014.1
20171123091006 27 269 1.0 5.0 0.00 0.00 0.00 78 1014.1
20171123090004 27 304 2.0 3.0 0.00 0.00 0.00 78 1014.1
20171123085507 27 323 2.0 5.0 0.00 0.00 0.00 77 1014.1
20171123085005 27 340 2.0 3.0 0.00 0.00 0.00 76 1014.3
20171123084505 27 254 2.0 3.0 0.00 0.00 0.00 76 1014.4
20171123084004 27 330 1.0 2.0 0.00 0.00 0.00 76 1014.7
20171123083504 27 345 1.0 2.0 0.00 0.00 0.00 76 1014.4
20171123083009 27 294 2.0 3.0 0.00 0.00 0.00 75 1015.1
20171123082505 27 297 1.0 3.0 0.00 0.00 0.00 75 1014.7
20171123082004 27 288 1.0 2.0 0.00 0.00 0.00 75 1015.1
20171123081505 27 319 1.0 2.0 0.00 0.00 0.00 75 1014.7
20171123081009 27 266 2.0 3.0 0.00 0.00 0.00 75 1015.0
20171123080004 27 320 2.0 3.0 0.00 0.00 0.00 75 1015.1
20171123075504 27 244 1.0 3.0 0.00 0.00 0.00 75 1015.1
20171123075009 27 291 1.0 2.0 0.00 0.00 0.00 75 1014.7
20171123074504 27 284 2.0 3.0 0.00 0.00 0.00 74 1015.0
20171123074007 27 211 3.0 6.0 0.00 0.00 0.00 74 1014.8
20171123073506 27 292 2.0 3.0 0.00 0.00 0.00 74 1014.7
20171123073005 27 316 1.0 3.0 0.00 0.00 0.00 74 1014.7
20171123072504 27 272 0.0 2.0 0.00 0.00 0.00 74 1014.7
20171123072005 27 327 2.0 3.0 0.00 0.00 0.00 73 1015.1
20171123071505 27 330 2.0 3.0 0.00 0.00 0.00 73 1015.1
20171123071011 27 334 1.0 3.0 0.00 0.00 0.00 71 1015.4
20171123070004 27 331 3.0 5.0 0.00 0.00 0.00 71 1015.5
20171123065505 27 339 3.0 5.0 0.00 0.00 0.00 70 1015.5
20171123065004 27 265 1.0 3.0 0.00 0.00 0.00 70 1015.5
20171123064505 27 301 2.0 5.0 0.00 0.00 0.00 70 1015.7
20171123064004 27 279 3.0 5.0 0.00 0.00 0.00 70 1015.5
20171123063512 27 333 3.0 6.0 0.00 0.00 0.00 69 1015.5
20171123063004 27 342 3.0 3.0 0.00 0.00 0.00 69 1015.7
20171123062505 27 313 2.0 6.0 0.00 0.00 0.00 68 1015.9
20171123062005 27 333 3.0 8.0 0.00 0.00 0.00 68 1015.7
20171123061505 27 336 2.0 5.0 0.00 0.00 0.00 68 1015.9
20171123061006 27 262 2.0 5.0 0.00 0.00 0.00 68 1015.9
20171123060008 27 270 2.0 5.0 0.00 0.00 0.00 66 1015.9
20171123055510 27 240 2.0 3.0 0.00 0.00 0.00 65 1015.9
20171123055012 27 229 2.0 3.0 0.00 0.00 0.00 65 1015.9
20171123054508 27 162 3.0 6.0 0.00 0.00 0.00 65 1015.9
20171123054008 27 298 2.0 6.0 0.00 0.00 0.00 65 1016.0
20171123053507 27 335 2.0 5.0 0.00 0.00 0.00 65 1016.1
20171123053013 27 296 2.0 5.0 0.00 0.00 0.00 65 1016.3
20171123052505 27 0 2.0 0.0 0.00 0.00 0.00 65 1017.4
20171123052005 27 0 2.0 0.0 0.00 0.00 0.00 65 1017.6
20171123051507 27 0 2.0 0.0 0.00 0.00 0.00 65 1017.6
20171123051007 27 0 2.0 0.0 0.00 0.00 0.00 65 1017.6
20171123050005 27 0 2.0 0.0 0.00 0.00 0.00 65 1017.6
20171123045505 27 0 2.0 0.0 0.00 0.00 0.00 65 1017.6
20171123045006 27 0 2.0 0.0 0.00 0.00 0.00 65 1017.6
20171123044506 27 0 2.0 0.0 0.00 0.00 0.00 65 1017.6
20171123044006 27 0 2.0 0.0 0.00 0.00 0.00 65 1017.6
20171123043507 27 0 2.0 0.0 0.00 0.00 0.00 65 1017.6
20171123043005 27 0 2.0 0.0 0.00 0.00 0.00 65 1017.6
20171123041510 27 0 2.0 0.0 0.00 0.00 0.00 65 1017.6
20171123041027 27 0 2.0 0.0 0.00 0.00 0.00 65 1017.6
20171123040004 27 0 2.0 6.0 0.00 0.00 0.00 65 1017.6
20171123035005 27 338 1.0 3.0 0.00 0.00 0.00 65 1017.4
20171123034504 27 333 1.0 2.0 0.00 0.00 0.00 65 1017.6
20171123034005 27 330 1.0 3.0 0.00 0.00 0.00 65 1017.6
20171123033506 27 356 1.0 3.0 0.00 0.00 0.00 65 1017.6
20171123033005 27 263 2.0 3.0 0.00 0.00 0.00 65 1017.6
20171123032505 27 344 1.0 3.0 0.00 0.00 0.00 65 1017.7
20171123032005 27 355 1.0 2.0 0.00 0.00 0.00 65 1017.6
20171123031505 27 286 1.0 3.0 0.00 0.00 0.00 65 1017.8
20171123031006 27 238 1.0 3.0 0.00 0.00 0.00 65 1017.9
20171123030005 27 250 1.0 3.0 0.00 0.00 0.00 65 1018.1
20171123025505 27 255 1.0 3.0 0.00 0.00 0.00 65 1018.0
20171123025004 27 298 0.0 2.0 0.00 0.00 0.00 65 1017.9
20171123024507 27 301 1.0 3.0 0.00 0.00 0.00 65 1018.1
20171123024005 27 328 1.0 3.0 0.00 0.00 0.00 65 1018.0
20171123023505 27 353 0.0 1.0 0.00 0.00 0.00 65 1018.0
20171123023004 27 135 1.0 2.0 0.00 0.00 0.00 65 1018.1
20171123022505 27 349 1.0 3.0 0.00 0.00 0.00 63 1018.0
20171123022004 27 296 1.0 2.0 0.00 0.00 0.00 63 1018.1
20171123021505 27 323 2.0 3.0 0.00 0.00 0.00 61 1018.1
20171123021007 27 335 1.0 3.0 0.00 0.00 0.00 61 1017.9
20171123020004 27 336 2.0 8.0 0.00 0.00 0.00 61 1017.9
20171123015505 27 3 1.0 3.0 0.00 0.00 0.00 61 1017.8
20171123015005 27 308 2.0 7.0 0.00 0.00 0.00 61 1017.8
20171123014505 27 314 2.0 3.0 0.00 0.00 0.00 60 1017.8
20171123014004 27 329 2.0 6.0 0.00 0.00 0.00 61 1018.1
20171123013505 27 354 2.0 3.0 0.00 0.00 0.00 60 1018.2
20171123013006 27 337 2.0 3.0 0.00 0.00 0.00 61 1018.2
20171123012505 27 333 2.0 7.0 0.00 0.00 0.00 60 1018.2
20171123012004 27 357 2.0 3.0 0.00 0.00 0.00 60 1018.2
20171123011504 27 336 2.0 6.0 0.00 0.00 0.00 61 1018.2
20171123011004 27 304 1.0 5.0 0.00 0.00 0.00 61 1018.6
20171123010005 27 353 3.0 6.0 0.00 0.00 0.00 61 1018.6
20171123005504 27 358 2.0 3.0 0.00 0.00 0.00 61 1018.6
20171123005004 27 343 2.0 3.0 0.00 0.00 0.00 61 1018.9
20171123004504 27 263 2.0 3.0 0.00 0.00 0.00 61 1018.9
20171123004004 27 320 1.0 3.0 0.00 0.00 0.00 61 1018.9
20171123003504 27 209 1.0 2.0 0.00 0.00 0.00 61 1018.6
20171123003005 27 330 1.0 3.0 0.00 0.00 0.00 61 1018.7
20171123002505 27 315 0.0 2.0 0.00 0.00 0.00 61 1018.9
20171123002005 27 0 1.0 3.0 0.00 0.00 0.00 61 1018.9
20171123001504 27 312 0.0 1.0 0.00 0.00 0.00 61 1019.2
20171123001004 27 0 1.0 3.0 0.00 0.00 0.00 60 1019.2
20171123000004 27 337 1.0 3.0 0.00 0.00 0.00 60 1019.2
20171122235504 27 323 1.0 3.0 0.00 0.00 0.00 60 1019.2
20171122235004 27 332 2.0 3.0 0.00 0.00 0.00 60 1019.1
20171122234504 27 314 1.0 5.0 0.00 0.00 0.00 60 1019.2
20171122234005 27 334 2.0 5.0 0.00 0.00 0.00 59 1019.2
20171122233504 28 327 2.0 6.0 0.00 0.00 0.00 59 1019.2
20171122233005 28 333 3.0 5.0 0.00 0.00 0.00 59 1019.6
20171122232504 28 302 2.0 5.0 0.00 0.00 0.00 59 1019.2
20171122232004 28 282 2.0 5.0 0.00 0.00 0.00 59 1019.6
20171122231504 28 254 1.0 2.0 0.00 0.00 0.00 59 1019.2
20171122231005 28 323 1.0 3.0 0.00 0.00 0.00 59 1019.2
20171122230004 28 322 2.0 3.0 0.00 0.00 0.00 58 1019.6
20171122225504 28 275 2.0 7.0 0.00 0.00 0.00 58 1019.6
20171122224504 28 15 1.0 3.0 0.00 0.00 0.00 58 1019.6
20171122224005 28 357 1.0 3.0 0.00 0.00 0.00 58 1019.6
20171122223504 28 357 1.0 3.0 0.00 0.00 0.00 58 1019.8
20171122223004 28 340 1.0 3.0 0.00 0.00 0.00 58 1019.9
20171122222505 28 316 1.0 3.0 0.00 0.00 0.00 58 1019.8
20171122222004 28 312 1.0 3.0 0.00 0.00 0.00 58 1020.3
20171122221504 28 0 1.0 1.0 0.00 0.00 0.00 59 1020.3
20171122221005 28 324 2.0 3.0 0.00 0.00 0.00 58 1020.4
20171122220004 28 127 1.0 3.0 0.00 0.00 0.00 56 1020.6
20171122215505 28 123 2.0 3.0 0.00 0.00 0.00 56 1020.6
20171122215005 28 343 2.0 3.0 0.00 0.00 0.00 56 1020.6
20171122214504 28 356 3.0 6.0 0.00 0.00 0.00 56 1020.6
20171122214005 28 11 2.0 3.0 0.00 0.00 0.00 56 1020.9
20171122213505 28 121 2.0 3.0 0.00 0.00 0.00 55 1020.6
20171122213004 28 236 2.0 3.0 0.00 0.00 0.00 55 1020.6
20171122212505 28 316 2.0 3.0 0.00 0.00 0.00 55 1020.9
20171122212005 28 302 1.0 3.0 0.00 0.00 0.00 55 1020.7
20171122211505 28 333 2.0 3.0 0.00 0.00 0.00 56 1020.9
20171122211006 28 232 1.0 3.0 0.00 0.00 0.00 55 1020.9
20171122210004 28 300 2.0 3.0 0.00 0.00 0.00 55 1020.9
20171122205504 28 302 2.0 3.0 0.00 0.00 0.00 55 1020.9
20171122205004 28 294 2.0 5.0 0.00 0.00 0.00 55 1020.9
20171122204504 28 198 2.0 3.0 0.00 0.00 0.00 55 1021.3
20171122204005 28 332 2.0 6.0 0.00 0.00 0.00 55 1020.9
20171122203504 28 337 5.0 6.0 0.00 0.00 0.00 55 1020.9
20171122203004 28 312 3.0 5.0 0.00 0.00 0.00 55 1020.9
20171122201005 28 327 2.0 5.0 0.00 0.00 0.00 56 1020.9
20171122200005 28 358 3.0 7.0 0.00 0.00 0.00 55 1020.9
20171122195505 28 292 2.0 3.0 0.00 0.00 0.00 55 1021.3
20171122195004 30 271 3.0 5.0 0.00 0.00 0.00 55 1021.3
20171122194505 30 313 2.0 3.0 0.00 0.00 0.00 55 1021.3
20171122194004 30 327 3.0 6.0 0.00 0.00 0.00 55 1021.3
20171122193504 30 289 3.0 5.0 0.00 0.00 0.00 55 1021.3
20171122193004 30 173 2.0 3.0 0.00 0.00 0.00 56 1021.4
20171122192504 30 326 2.0 5.0 0.00 0.00 0.00 55 1021.4
20171122192005 28 5 2.0 2.0 0.00 0.00 0.00 60 1022.5
20171122191504 27 0 2.0 1.0 0.00 0.00 0.00 63 1024.6
20171122191008 27 0 2.0 1.0 0.00 0.00 0.00 63 1024.6
20171122190008 27 0 2.0 1.0 0.00 0.00 0.00 63 1024.6
20171122184005 27 0 2.0 1.0 0.00 0.00 0.00 63 1024.6
20171122183024 27 0 2.0 1.0 0.00 0.00 0.00 63 1024.6
20171122181014 27 0 2.0 1.0 0.00 0.00 0.00 63 1024.6
20171122174015 27 0 2.0 1.0 0.00 0.00 0.00 63 1024.6
20171122173509 27 0 2.0 1.0 0.00 0.00 0.00 63 1024.6
20171122173023 27 0 2.0 1.0 0.00 0.00 0.00 63 1024.6
20171122172005 27 0 2.0 1.0 0.00 0.00 0.00 63 1024.6
20171122171524 27 0 2.0 1.0 0.00 0.00 0.00 63 1024.6
20171122171018 27 0 2.0 1.0 0.00 0.00 0.00 63 1024.6
20171122170024 27 0 2.0 1.0 0.00 0.00 0.00 63 1024.6
20171122154035 27 0 2.0 2.0 0.00 0.00 0.00 63 1024.6
20171122153023 27 294 2.0 3.0 0.00 0.00 0.00 63 1024.6
20171122152525 27 329 1.0 3.0 0.00 0.00 0.00 64 1024.4
20171122152021 27 327 1.0 3.0 0.00 0.00 0.00 65 1024.4
20171122151505 27 333 2.0 5.0 0.00 0.00 0.00 65 1024.3
20171122151010 27 321 1.0 3.0 0.00 0.00 0.00 67 1024.7
20171122150015 27 345 2.0 3.0 0.00 0.00 0.00 69 1025.0
20171122145509 27 352 1.0 3.0 0.00 0.00 0.00 70 1025.0
20171122145006 27 329 1.0 3.0 0.00 0.00 0.00 70 1025.0
20171122144025 25 249 1.0 2.0 0.00 0.00 0.00 73 1025.5
20171122143516 25 324 1.0 2.0 0.00 0.00 0.00 73 1025.5
20171122143004 25 297 1.0 2.0 0.00 0.00 0.00 74 1025.5
20171122142504 25 327 1.0 2.0 0.00 0.00 0.00 75 1025.5
20171122142004 25 354 1.0 3.0 0.00 0.00 0.00 75 1025.5
20171122141504 23 266 0.0 2.0 0.00 0.00 0.00 75 1025.7
20171122140004 23 309 2.0 3.0 0.00 0.00 0.00 76 1025.9
20171122135507 23 323 2.0 5.0 0.00 0.00 0.00 76 1025.8
20171122135004 23 350 2.0 3.0 0.00 0.00 0.00 78 1025.9
20171122134504 23 328 1.0 2.0 0.00 0.00 0.00 78 1025.5
20171122134005 23 331 1.0 2.0 0.00 0.00 0.00 78 1025.5
20171122133505 23 332 1.0 3.0 0.00 0.00 0.00 78 1025.5
20171122133005 23 320 2.0 3.0 0.00 0.00 0.00 78 1025.9
20171122132504 23 305 1.0 2.0 0.00 0.00 0.00 78 1025.8
20171122132004 23 339 2.0 3.0 0.00 0.00 0.00 78 1025.9
20171122131504 23 303 1.0 3.0 0.00 0.00 0.00 78 1025.5
20171122130004 23 320 1.0 2.0 0.00 0.00 0.00 79 1025.1
20171122125504 23 322 1.0 2.0 0.00 0.00 0.00 79 1024.9
20171122125009 23 277 1.0 2.0 0.00 0.00 0.00 78 1025.2
20171122124505 23 221 1.0 3.0 0.00 0.00 0.00 78 1025.5
20171122124004 23 265 1.0 2.0 0.00 0.00 0.00 78 1025.5
20171122123506 23 325 1.0 3.0 0.00 0.00 0.00 78 1025.2
20171122123004 23 293 1.0 3.0 0.00 0.00 0.00 78 1024.8
20171122122504 23 340 1.0 2.0 0.00 0.00 0.00 78 1025.2
20171122122004 23 349 1.0 2.0 0.00 0.00 0.00 78 1024.8
20171122121505 23 288 1.0 2.0 0.00 0.00 0.00 78 1025.2
20171122121009 23 320 1.0 2.0 0.00 0.00 0.00 78 1025.2
20171122120004 23 340 1.0 2.0 0.00 0.00 0.00 78 1024.6
20171122115505 23 270 1.0 2.0 0.00 0.00 0.00 78 1024.8
20171122115005 23 338 0.0 1.0 0.00 0.00 0.00 76 1024.5
20171122114004 23 350 1.0 1.0 0.00 0.00 0.00 76 1024.8
20171122113504 23 333 0.0 2.0 0.00 0.00 0.00 76 1024.5
20171122113004 23 312 1.0 2.0 0.00 0.00 0.00 75 1024.8